Regional Weather Roundup
Issued by NWS Newport/Morehead, NC

Current Version | Previous Version | Text Only | Print | Product List | Glossary On
Versions: 1 2 3 4 5 6 7 8 9 10 11 12 13 14 15 16 17 18 19 20 21 22 23 24 25 26 27 28 29 30 31 32 33 34 35 36 37 38 39 40 41 42 43 44 45 46 47 48 49 50
000 ASUS42 KMHX 051825 RWRMHX WEATHER ROUNDUP FOR EASTERN NORTH CAROLINA NATIONAL WEATHER SERVICE NEWPORT/MOREHEAD CITY NC 100 PM EST FRI FEB 05 2016 NOTE: "FAIR" INDICATES FEW OR NO CLOUDS BELOW 12,000 FEET WITH NO SIGNIFICANT WEATHER AND/OR OBSTRUCTIONS TO VISIBILITY NCZ015>017-031-032-045>047-102-103-051900- NORTH COAST CITY SKY/WX TMP DP RH WIND PRES REMARKS EDENTON CLOUDY 44 33 64 N15G25 30.29S ELIZABETH CITY CLOUDY 44 33 65 NW18G24 30.27R KITTY HAWK CLOUDY 40 34 78 NW13G23 30.24R MANTEO CLOUDY 40 33 75 N18G29 30.26R $$ NCZ045>047-081-094-103-104-051900- CENTRAL COAST CITY SKY/WX TMP DP RH WIND PRES REMARKS FRISCO CLOUDY N/A N/A N/A NW14G26 30.25R SWANQUARTER N/A 43 N/A N/A NW17G24 30.24S $$ NCZ095-097-098-100-101-051900- SOUTHERN COAST CITY SKY/WX TMP DP RH WIND PRES REMARKS BEAUFORT CLOUDY 44 33 65 N18G24 30.27S CEDAR ISLAND N/A 43 N/A N/A NW28G33 30.30F JACKSONVILLE CLOUDY 46 31 55 N15 30.27F PINEY ISLAND NOT AVBL WILMINGTON CLOUDY 46 33 60 N14G21 30.28F $$ NCZ011>013-027>030-043-044-078>080-089-090>093-098-051900- COASTAL PLAIN CITY SKY/WX TMP DP RH WIND PRES REMARKS AHOSKIE MOSUNNY 43 27 53 NW13G18 30.29F CLINTON SUNNY 47 29 49 NW12G21 30.29F ELIZABETHTOWN SUNNY 47 28 46 N5G18 30.28F GOLDSBORO MOSUNNY 46 30 53 N14 30.27F GREENVILLE PTSUNNY 45 30 57 N14 30.29F HAVELOCK CLOUDY 44 31 60 N20G26 30.28S KENANSVILLE N/A 45 28 51 N10G17 30.29F KINSTON PTSUNNY 45 32 61 N9G20 30.30F NEW BERN CLOUDY 44 31 60 N15 30.29F RICHLANDS CLOUDY 46 28 49 N12G17 30.27F ROCKY MOUNT SUNNY 45 27 49 NW16G22 30.29F WASHINGTON PTSUNNY 44 31 62 N10 30.28F WHITEVILLE MOSUNNY 47 29 48 N10G16 30.28F $$ AMZ130-135-150-152-154-156-158-170-250-252-270-ANZ085-086-088-633-658-670-051900- MARINE OBSERVATIONS STATION/POSITION TIME TEMP WIND PRES WAVE SWELL AIR SEA DIR/SP/G HT/PER HT/PER (UTC) (F) (DEG/KT/KT) (MB) (FT/S) (FT/S) CHESAPEAKE LIGHT 1800 40 330/ 31/ 33 1024.6 64 E VA BEACH 1750 42 53 340/ 29/ 35 1021.0 13/ 9 8/ 9 DUCK 1800 40 46 330/ 24/ 27 1023.5 2 E DUCK 1811 45 N/A 7/ 7 2/11 OREGON INLET 1800 41 48 320/ 18/ 25 1024.1 13E OREGON INLT 1800 47 N/A 11/ 9 2/11 HATTERAS CG 1800 42 54 330/ 27/ 31 1023.9 DIAMOND BUOY 1750 69 340/ 27/ 33 1022.8 8/ 7 3/15 CAPE LOOKOUT NOT AVBL BEAUFORT LAB 1800 44 53 350/ 16/ 23 1023.9 30 SE NEW RVR IN 1808 45 65 1022.6 30 SE NEW RVR IN 1725 64 N/A 6/ 5 27 SE WRIGHTSVLE 1708 48 64 360/ 19/ 25 1023.8 5 SE WRIGHTSVLE NOT AVBL 225 S CAPE HAT 1750 60 69 330/ 25/ 31 N/A 10/ 8 41 SE CHARLESTON 1750 49 68 360/ 21/ 25 1024.8 7/ 7 $$

USA.gov is the U.S. government's official web portal to all federal, state and local government web resources and services.